Wind_Speed
27 28 29 29 29 29 30 31 30 29 30 30 29 28 28 28 28 28 29 29 29 30 31 32 33 34 36 37 36 36 35 35 35 34 33 32 31 30 30 29 27 26 26 25 25 25 25 25 25 25 25 24 23 23 23 23 22 20 17 16 15 15 14 14 14 14 13 12 10 8 7 8 9 10 11 11 12 13 15 15 15 15 15 13 10 6
27 27 28 28 28 29 30 31 30 29 29 29 30 29 29 29 29 30 29 29 29 29 29 30 31 33 35 37 36 35 34 34 34 33 32 31 31 30 30 29 28 27 26 25 25 25 24 24 25 25 25 24 23 23 23 23 22 20 18 17 17 16 16 15 15 15 14 13 12 10 9 9 9 10 11 12 13 14 15 16 15 14 14 14 12 9
26 26 28 28 27 28 29 30 30 29 28 29 29 29 30 30 30 30 29 28 28 28 29 29 30 31 34 35 35 33 32 32 32 32 31 31 30 30 30 30 29 27 26 25 25 24 24 24 24 24 24 24 23 23 23 22 21 20 19 18 18 18 17 17 16 16 15 14 13 12 12 11 10 10 11 12 14 15 16 16 14 13 14 14 13 11
26 26 27 27 27 27 29 30 30 29 28 28 28 29 30 30 30 29 29 28 28 28 29 29 29 30 32 33 33 33 32 31 31 31 30 30 30 30 30 30 29 27 26 25 24 24 23 23 23 23 24 23 23 22 22 21 20 19 18 18 18 18 18 18 17 17 16 15 14 14 13 12 12 12 12 13 14 16 16 16 15 14 14 13 13 13
27 27 27 27 27 28 29 29 29 28 28 28 28 28 29 29 28 28 27 27 27 27 28 28 28 29 30 32 33 33 31 30 30 29 30 30 30 30 30 29 28 27 25 24 24 23 23 23 23 23 23 22 22 21 21 20 18 18 17 18 18 19 19 19 18 18 17 16 16 15 15 14 13 13 13 14 15 16 17 17 16 14 13 13 13 13
29 28 27 27 27 28 29 28 27 26 26 26 26 27 26 26 26 25 25 25 25 26 27 28 29 30 31 32 32 31 29 29 29 29 29 29 29 29 28 28 27 26 25 24 23 23 22 22 22 22 22 22 22 21 20 19 18 17 17 17 18 18 19 19 19 18 18 17 17 17 16 15 14 14 14 14 15 16 17 17 16 15 14 13 13 13
29 29 28 27 28 29 29 28 26 25 24 24 24 24 24 23 23 22 23 24 25 26 27 28 29 30 30 30 29 28 28 28 28 28 28 28 28 27 27 26 25 25 25 24 23 22 21 21 21 21 22 22 22 21 20 19 18 17 17 17 18 18 18 18 18 18 18 18 17 17 17 16 15 14 14 15 16 17 18 18 17 16 14 13 14 14
29 29 29 28 29 29 29 28 26 24 23 23 23 23 22 21 21 22 23 25 26 26 27 27 27 28 28 28 27 27 27 27 27 27 27 27 26 26 25 25 25 25 24 23 22 21 20 20 20 21 22 22 22 21 21 20 19 19 18 18 18 18 18 18 18 18 18 18 18 17 17 16 16 15 15 15 16 17 18 18 18 17 15 14 14 14
28 29 30 30 29 28 27 27 26 25 24 23 22 21 20 21 22 23 24 25 25 25 24 25 25 26 26 26 25 25 25 25 25 26 26 26 26 26 26 25 25 24 23 22 21 21 20 20 20 21 21 21 21 21 21 21 21 20 19 19 19 19 19 18 18 18 18 18 18 18 17 17 17 17 16 16 16 17 18 19 19 18 16 15 14 14
27 27 28 28 28 26 23 24 25 24 23 22 22 21 20 21 22 23 24 24 23 23 22 22 23 24 25 25 24 24 24 23 24 25 25 26 26 26 26 25 24 22 21 21 21 21 21 21 21 21 21 21 22 22 22 22 22 21 21 20 20 19 19 19 19 19 19 19 19 18 18 18 18 18 17 17 17 17 18 19 19 19 17 15 14 14
25 25 25 24 24 23 21 21 21 21 20 20 20 21 21 20 20 20 20 22 23 23 22 22 23 23 24 24 24 23 22 23 25 26 26 26 26 25 24 22 21 20 20 20 20 21 21 22 22 22 22 22 22 22 22 22 22 22 21 21 21 20 20 20 20 20 20 20 20 19 19 19 19 19 18 18 18 18 18 19 20 20 18 16 15 14
22 22 22 21 20 19 18 18 17 17 17 17 17 18 19 20 20 19 19 20 21 23 23 23 23 24 24 24 23 22 22 24 25 26 26 25 24 23 22 21 20 20 21 21 22 22 22 22 22 22 22 22 22 21 21 22 22 22 22 22 21 21 21 21 21 21 21 21 21 21 20 20 20 20 20 19 19 18 19 19 20 20 20 18 16 15
20 19 18 18 17 15 15 15 16 16 16 16 15 15 17 19 20 19 19 20 21 22 23 23 24 24 24 23 22 22 23 23 24 23 23 22 22 21 21 21 22 22 23 24 24 25 24 23 22 22 21 21 21 21 21 21 22 22 22 22 22 22 22 22 22 22 22 22 22 22 22 21 21 21 21 20 20 19 19 20 21 21 21 19 17 15
15 15 15 14 15 16 17 18 18 18 18 18 18 18 18 19 18 17 17 19 21 22 22 23 23 24 23 22 22 22 22 22 22 22 21 21 20 20 20 21 22 23 23 24 25 26 25 24 23 23 22 22 22 21 21 21 21 22 22 22 22 23 23 23 23 23 23 23 23 23 22 22 22 22 22 21 21 21 20 21 21 22 22 21 19 16
14 15 15 15 17 20 21 21 20 19 19 19 19 18 17 17 17 17 17 19 20 22 22 22 23 23 22 21 20 20 20 20 20 19 19 19 19 19 19 20 21 22 23 22 23 25 25 25 25 25 25 24 22 21 20 20 21 21 22 22 23 23 23 23 23 24 24 24 24 24 23 23 23 22 22 22 22 22 22 22 22 23 23 23 20 18
20 19 16 14 17 20 21 21 20 19 19 18 17 16 16 17 18 19 19 19 20 20 19 18 17 18 19 19 18 16 16 17 17 17 18 19 19 18 18 19 20 21 22 22 23 24 25 25 26 26 26 24 22 20 19 19 20 21 21 22 22 23 24 24 24 24 25 25 25 25 24 24 23 23 23 23 23 23 23 23 23 24 24 24 22 19
20 19 17 16 17 19 21 20 19 18 18 18 18 18 18 19 19 20 20 20 19 18 16 14 9 6 9 15 16 14 13 13 15 16 18 20 20 19 17 18 19 20 21 22 23 24 25 25 25 25 25 23 22 20 19 19 19 20 21 21 22 23 23 24 25 25 25 25 25 25 25 24 24 23 23 23 24 24 24 24 24 24 25 25 24 21
19 20 19 17 18 20 22 22 21 21 20 20 20 20 20 21 21 22 22 21 19 16 15 14 10 6 4 7 11 14 12 13 15 17 19 20 20 20 18 18 18 20 21 22 23 24 24 24 24 24 23 22 20 20 19 19 19 20 20 20 21 22 23 24 25 25 25 26 26 26 25 25 24 24 24 24 24 25 25 25 24 25 25 26 25 23
22 22 21 20 22 23 24 23 21 20 19 19 19 20 20 22 22 22 22 20 19 17 15 13 12 12 11 12 15 16 15 15 16 18 18 20 20 20 18 18 18 20 21 22 22 22 22 23 23 23 21 21 21 21 20 20 20 20 20 20 21 22 22 23 24 25 25 26 26 26 26 25 25 24 24 24 24 25 25 25 25 25 26 26 26 24
23 23 23 23 23 23 22 21 20 19 19 19 20 20 21 22 22 22 21 20 19 18 18 16 15 15 16 17 18 17 15 15 15 16 17 19 20 21 19 18 18 19 20 21 21 21 21 21 21 21 21 21 21 21 21 21 21 21 21 21 21 22 22 23 23 24 24 25 26 26 26 25 25 25 24 24 25 25 25 25 25 25 25 26 26 25
23 24 25 25 23 22 21 21 21 20 20 20 21 21 21 21 20 19 18 17 17 17 17 16 16 17 17 17 17 16 15 14 14 15 17 18 20 20 19 17 17 19 20 21 21 20 19 20 21 22 23 22 22 22 22 22 22 22 22 22 22 22 22 23 23 23 24 24 25 25 26 26 25 25 25 25 25 25 25 26 26 25 25 26 26 26
24 26 27 26 24 23 23 23 23 23 23 22 21 21 21 20 19 19 19 18 17 17 17 17 18 18 19 19 18 18 17 16 16 17 17 15 17 20 19 16 16 17 19 20 20 19 19 20 21 22 23 22 22 23 23 23 23 23 23 23 23 23 23 23 23 23 23 24 24 25 25 25 25 25 25 25 25 25 25 26 26 26 26 26 27 26
26 25 26 25 23 23 23 24 25 26 27 26 27 27 25 24 22 22 21 21 20 20 20 20 20 21 20 20 20 20 20 20 20 19 17 11 13 17 17 15 15 16 19 20 19 19 19 20 21 22 22 23 23 23 23 23 23 23 22 22 22 23 23 23 23 23 24 24 24 24 24 25 25 25 25 25 25 25 25 26 26 26 26 26 27 26
23 24 24 25 26 26 27 27 27 27 28 28 28 26 23 22 21 21 21 21 20 20 20 20 20 20 20 19 19 19 19 20 20 18 15 12 12 15 16 14 15 17 19 20 19 19 19 20 21 22 22 22 22 22 22 22 22 22 22 22 22 23 23 23 23 24 24 24 24 24 24 25 25 25 25 25 25 25 25 26 26 26 26 26 27 27
24 26 27 29 30 30 29 28 27 26 24 22 19 16 15 16 16 17 17 18 18 17 16 16 15 15 15 15 15 14 15 15 16 16 14 12 14 16 16 15 15 16 19 20 19 19 19 20 21 21 21 21 21 20 21 21 21 22 22 22 23 23 23 23 24 24 24 25 25 25 25 25 25 25 25 25 25 26 26 26 26 26 26 26 27 27
26 27 28 29 29 30 29 29 29 28 26 25 24 23 22 20 18 17 16 15 14 13 13 11 10 11 14 14 14 14 13 13 13 14 14 12 13 15 16 16 16 17 19 20 20 19 19 20 20 20 19 20 20 21 22 22 22 22 22 22 22 22 22 22 23 24 24 25 25 26 26 26 26 26 26 26 26 26 26 26 27 27 26 27 27 28
26 27 28 28 28 28 27 27 26 26 26 24 23 23 22 21 19 17 15 14 14 13 13 8 7 10 13 12 13 14 14 13 12 13 13 13 12 14 16 17 17 17 19 20 20 19 18 18 18 18 19 21 23 24 24 22 21 20 20 19 19 19 20 21 22 22 23 24 25 26 26 27 27 27 27 27 28 27 27 27 27 27 27 27 27 27
25 25 26 26 25 25 24 24 23 23 22 22 22 21 21 20 18 16 14 14 13 13 12 9 7 7 6 7 11 14 14 14 13 13 13 13 12 14 17 17 17 17 18 18 18 17 17 17 18 20 22 23 24 23 21 18 16 15 15 16 17 17 18 18 19 20 21 22 24 25 26 27 27 28 28 29 29 29 28 28 28 27 26 26 26 27
24 24 24 24 24 23 23 22 22 22 21 20 20 19 19 18 17 16 14 14 12 11 10 9 9 7 6 9 13 15 15 15 16 15 15 14 14 15 17 16 15 15 14 13 13 14 16 17 19 20 21 20 19 17 15 13 13 13 15 16 16 17 17 17 17 18 19 20 22 23 25 26 27 28 29 30 30 30 30 29 28 27 26 26 26 26
25 25 25 24 23 22 22 23 22 22 20 19 19 19 18 18 18 18 17 16 14 12 11 12 12 11 10 10 10 10 11 14 14 14 14 12 12 13 14 13 12 11 10 9 8 9 12 14 15 14 14 13 12 12 13 13 14 16 17 18 18 17 17 16 16 17 18 19 21 22 23 25 26 27 29 30 31 31 31 30 28 26 25 25 25 25
25 25 24 23 23 22 22 22 22 21 21 20 20 19 19 19 19 19 19 17 15 14 13 13 13 13 12 6 4 3 3 9 10 9 10 9 10 11 12 11 11 11 10 8 4 3 6 7 9 9 8 9 11 13 15 16 18 19 20 19 18 15 13 13 13 15 17 19 21 22 23 24 25 26 28 30 31 32 32 31 29 27 25 25 25 25
23 23 22 22 22 22 21 20 21 21 21 21 21 20 19 19 18 18 17 17 16 15 15 14 14 14 14 10 7 6 5 10 11 9 10 10 10 12 13 12 12 12 12 11 8 5 4 3 6 11 12 13 15 17 18 18 18 18 18 17 16 14 11 9 10 12 15 18 20 22 24 24 25 26 27 29 31 32 33 32 30 28 26 25 25 26
22 22 22 22 21 21 20 21 21 21 20 20 20 20 20 19 18 18 17 17 17 17 16 15 14 14 14 14 14 13 14 16 15 14 13 13 12 13 13 13 13 13 13 12 13 11 8 6 10 15 17 17 16 16 17 17 17 16 16 16 15 14 11 10 9 10 12 15 18 21 23 24 25 26 27 29 30 32 33 33 31 29 28 27 26 26
22 22 21 21 21 20 20 20 20 20 19 19 19 18 18 18 18 18 18 18 18 18 18 17 16 15 14 13 14 16 18 18 17 16 15 15 14 13 13 13 12 12 11 11 12 12 12 13 14 14 15 17 17 16 15 15 15 15 14 14 14 14 13 12 11 11 11 12 14 17 19 22 24 25 27 28 30 32 33 33 33 31 30 28 27 26
22 21 21 20 20 20 19 19 19 18 18 17 17 17 17 17 18 18 18 18 19 19 20 19 19 17 16 15 14 15 17 18 18 16 15 16 15 14 13 13 12 11 10 10 10 9 10 13 14 13 12 14 16 16 15 14 13 12 12 12 12 13 13 13 13 13 12 11 12 14 16 19 22 24 26 28 30 32 33 34 33 32 31 30 29 28
21 21 20 20 19 19 18 18 17 17 17 17 17 17 18 18 18 19 19 19 19 20 20 21 21 21 20 19 18 18 19 20 19 17 16 16 16 15 14 14 13 12 11 12 11 10 8 10 13 15 13 10 11 13 14 13 12 11 12 12 13 14 14 15 15 15 14 13 12 13 14 17 19 22 26 28 30 31 32 33 34 33 32 31 31 30
20 20 20 19 19 18 18 18 18 17 17 17 18 18 18 19 19 19 20 20 21 21 21 21 22 22 23 23 23 24 24 23 22 21 20 19 19 18 16 16 15 15 13 13 13 12 11 9 9 11 11 9 7 9 12 13 13 13 14 14 15 15 16 17 17 17 16 16 15 15 15 15 17 20 23 26 29 30 32 33 33 33 33 32 31 31
19 19 19 19 19 19 18 18 18 18 18 18 19 20 20 20 20 21 21 21 21 22 22 22 22 23 23 24 25 27 28 28 27 26 25 24 24 22 20 18 18 17 16 15 15 14 12 8 7 7 6 9 11 13 14 14 13 14 15 16 16 17 18 19 18 17 16 15 15 15 15 15 16 18 21 23 26 28 30 31 33 33 32 31 31 31
19 19 19 19 19 19 19 18 19 20 20 20 21 21 21 20 20 20 20 20 21 21 21 22 22 23 24 25 25 26 27 28 28 28 28 28 28 26 24 21 20 19 19 18 17 16 15 12 9 7 6 7 10 13 15 14 13 14 16 17 18 18 18 16 14 13 13 13 13 13 15 15 16 17 20 22 24 25 27 29 31 32 32 31 31 30
19 19 19 20 20 19 19 19 20 21 22 22 21 20 20 19 19 19 19 19 19 19 20 20 21 22 23 23 23 24 25 26 26 27 27 28 29 28 27 24 22 20 19 19 18 18 17 16 15 15 14 10 10 13 14 14 14 14 15 14 14 14 13 13 13 13 14 14 14 15 16 15 15 16 19 21 23 25 26 27 28 29 30 30 29 28
19 20 20 21 21 20 20 20 21 21 21 21 20 19 19 18 18 18 18 18 18 17 17 18 18 19 20 21 22 23 23 24 24 25 26 27 28 28 28 27 24 22 20 19 19 19 18 18 18 18 18 17 16 16 16 16 15 15 14 13 13 15 16 16 17 17 17 16 16 16 17 17 16 16 18 21 23 25 26 27 27 28 29 29 28 27
19 20 21 22 22 21 21 22 21 21 20 19 19 18 18 18 17 17 17 17 17 16 16 16 16 16 17 18 19 20 21 22 23 24 25 25 26 27 28 28 26 24 22 20 19 19 20 20 19 18 18 17 16 15 16 17 17 15 14 14 15 17 17 17 17 15 14 14 13 14 16 17 17 16 17 19 22 24 26 27 28 28 29 29 29 28
19 20 21 22 22 22 22 21 20 19 19 18 18 18 18 17 17 17 16 16 16 16 16 15 15 15 15 16 17 19 20 20 21 21 22 23 24 25 27 27 27 26 23 20 18 18 19 20 20 20 20 18 17 16 16 17 17 16 15 15 15 13 10 12 12 11 10 11 11 12 14 15 16 16 16 18 20 23 25 27 29 30 30 31 30 29
19 20 21 22 22 22 21 20 20 19 19 18 18 18 18 18 18 17 16 16 16 16 15 15 15 15 14 14 15 16 17 18 18 18 19 19 20 22 24 25 26 27 26 23 20 17 17 18 19 20 20 18 18 18 18 18 17 16 16 16 16 15 13 13 13 13 13 14 14 14 14 14 14 15 16 17 19 22 25 27 28 29 30 31 30 29
18 20 20 21 21 21 21 21 21 20 20 19 18 18 18 18 18 17 16 15 16 16 15 15 14 13 12 12 13 14 15 15 15 15 15 16 16 18 20 22 24 25 27 26 24 21 18 17 18 19 18 18 18 19 19 19 18 17 17 17 16 17 18 19 18 18 17 18 18 18 18 17 15 14 15 16 18 22 25 26 27 27 27 28 29 29
18 19 20 20 21 21 21 21 21 21 21 20 20 19 19 19 18 17 16 16 15 16 16 15 14 12 11 12 13 13 13 14 14 14 14 14 14 14 16 18 20 22 24 26 26 25 23 20 19 18 17 16 18 20 21 20 18 17 18 17 16 16 18 19 20 19 19 19 19 20 20 19 17 15 14 15 17 21 24 26 26 26 26 28 29 30
18 19 20 20 20 20 21 21 21 21 21 21 20 20 19 19 18 18 17 16 16 16 16 15 14 13 12 13 13 13 12 13 14 14 14 13 13 13 14 15 17 19 21 23 25 26 26 25 23 21 17 15 15 18 21 21 19 18 17 17 16 16 17 19 19 19 18 18 19 20 20 19 17 15 15 15 15 17 22 25 26 27 27 27 29 30
18 18 19 19 19 20 20 21 21 21 20 21 21 20 20 19 18 17 17 17 16 16 15 15 14 14 14 14 14 14 13 13 14 14 14 14 14 13 13 13 14 16 18 19 21 23 25 26 26 25 23 19 17 17 19 20 19 18 18 17 16 16 18 19 19 18 17 18 19 20 19 17 15 14 13 13 13 14 18 23 26 27 27 27 28 29
17 18 18 19 19 19 20 20 21 20 20 20 21 20 20 20 19 17 16 16 16 15 14 14 14 14 14 14 15 15 15 14 14 14 14 14 14 14 13 13 14 14 15 17 18 20 22 24 26 28 28 26 23 21 20 20 20 19 18 17 17 18 18 19 19 18 18 19 20 21 20 19 17 15 13 13 12 13 16 22 25 27 27 28 28 29
17 18 18 18 18 19 19 20 20 20 20 20 21 21 20 20 19 18 17 16 15 15 14 14 14 14 13 14 15 15 15 15 14 14 14 15 15 14 14 14 13 13 13 13 14 15 16 17 20 24 28 29 28 25 23 22 21 19 18 18 19 19 19 19 19 18 18 18 18 19 19 19 18 17 16 15 13 13 15 18 23 26 27 28 28 29
17 18 18 18 18 19 19 19 19 19 20 20 20 20 20 20 20 19 18 17 16 15 15 15 14 14 13 14 15 15 15 15 15 15 16 16 16 15 14 14 13 12 10 8 8 7 6 6 9 14 20 26 30 30 27 23 20 18 17 19 20 19 19 19 19 18 18 17 17 17 17 17 18 18 18 16 14 12 12 15 20 24 27 28 29 29
Wind_Direction
281 283 285 286 287 287 287 286 285 284 284 285 285 285 286 287 286 286 285 286 286 287 288 290 291 293 296 297 298 299 300 301 302 303 303 303 303 303 302 302 302 301 301 300 299 299 299 299 298 298 297 297 296 295 294 294 294 295 297 298 299 298 297 297 299 300 302 307 309 306 294 279 269 268 272 277 281 286 293 299 308 321 333 335 322 289
281 283 284 284 284 284 285 286 284 283 282 283 283 284 285 285 285 285 285 285 285 285 286 288 290 293 294 296 297 297 298 299 300 301 301 301 301 301 301 301 301 300 300 299 298 297 297 297 296 295 295 295 294 293 293 294 295 296 295 295 294 295 295 295 296 298 299 302 304 304 303 295 285 277 275 278 281 285 291 295 305 321 336 337 326 303
282 283 283 283 282 282 282 284 284 282 281 280 281 282 283 282 283 283 283 283 283 284 285 287 289 292 293 295 295 295 296 297 298 299 299 300 301 301 301 301 300 300 299 298 297 296 295 294 293 292 292 292 292 291 291 292 294 294 292 291 290 289 290 290 291 292 293 295 298 301 302 299 292 284 279 279 280 282 286 290 300 316 331 334 326 310
280 280 281 282 282 280 279 281 282 282 282 281 280 280 281 280 280 280 281 281 282 284 286 288 290 291 292 293 294 295 295 296 297 297 298 299 300 301 301 300 300 299 298 297 296 295 294 292 291 290 290 290 289 289 288 289 291 292 291 289 287 285 284 284 285 286 287 288 291 294 296 295 292 287 282 279 277 278 280 284 293 306 319 327 325 313
277 277 279 281 282 281 280 280 281 282 282 281 280 280 279 278 278 278 279 281 283 285 288 289 290 290 291 292 293 294 294 295 296 297 298 299 300 300 300 300 299 299 298 297 296 294 293 292 291 290 289 288 288 288 288 288 289 291 290 287 285 283 281 280 280 280 281 282 285 288 289 290 290 288 283 279 274 272 274 278 285 295 307 317 320 314
276 276 277 279 280 281 281 282 282 282 282 281 280 278 277 276 276 276 278 281 284 286 288 289 290 290 290 290 291 292 293 294 295 296 297 298 299 299 299 299 299 299 298 297 296 294 293 292 291 290 290 290 292 293 294 294 294 293 289 286 283 281 279 277 276 276 276 277 280 282 284 286 287 286 283 279 273 269 269 272 276 284 294 307 312 311
276 277 277 277 278 279 280 280 280 280 280 280 280 279 277 276 275 277 279 283 285 287 289 289 290 290 289 290 290 291 292 293 294 295 296 297 298 298 298 299 299 298 297 297 295 293 292 291 290 291 293 296 298 299 298 296 295 292 288 285 282 279 278 276 274 272 271 272 274 277 279 281 283 283 282 278 274 270 268 268 270 276 285 297 304 306
275 277 276 276 277 279 280 280 279 278 277 277 278 279 278 278 279 280 283 285 286 287 288 289 289 289 288 289 290 291 292 293 294 296 297 297 297 297 298 298 298 298 296 296 294 292 291 290 292 295 298 300 299 297 294 292 291 289 286 283 279 277 276 274 272 270 268 268 269 272 273 276 278 279 279 278 274 271 269 268 268 271 278 289 298 301
272 274 275 275 276 279 281 280 279 277 275 273 272 274 277 281 283 285 286 286 286 286 287 288 288 288 289 290 291 291 291 292 293 295 296 297 297 297 298 298 298 297 295 294 293 292 292 292 295 298 299 298 296 293 290 288 287 285 283 280 278 275 274 271 269 268 267 266 266 268 269 271 274 276 277 276 274 272 270 269 268 269 273 282 292 297
267 269 272 273 274 275 276 278 278 276 272 269 268 269 273 278 283 287 288 287 286 286 286 286 287 288 290 291 291 291 291 291 291 292 293 294 294 295 296 297 297 296 294 293 293 294 295 295 297 297 295 293 292 289 287 285 283 282 281 279 277 274 271 269 267 266 265 264 264 265 266 267 270 272 273 273 273 272 270 269 267 267 270 276 286 292
267 267 270 272 274 273 271 271 272 273 271 270 270 270 271 273 277 282 285 286 287 288 288 287 286 287 289 291 291 291 291 291 292 292 293 293 294 295 295 296 295 294 294 294 295 295 296 295 294 293 291 291 290 288 285 282 280 279 278 275 274 272 268 267 266 264 262 262 262 262 263 265 266 268 269 270 270 270 269 268 266 265 267 272 280 287
267 269 271 273 274 273 270 269 271 273 273 273 273 274 274 274 275 276 279 282 286 288 288 288 287 286 286 288 289 290 291 291 292 292 293 294 295 296 296 297 297 297 297 297 297 296 295 293 291 289 288 287 286 285 283 280 277 276 274 271 271 270 268 265 264 262 260 259 259 259 260 261 263 265 265 266 266 267 267 267 265 264 264 267 274 282
265 268 271 273 273 274 274 276 279 280 278 276 276 277 279 281 281 279 277 279 282 285 287 288 287 286 285 285 287 288 290 290 289 289 290 291 292 294 295 296 296 297 297 297 297 297 297 297 295 292 289 286 283 281 280 278 275 273 270 269 267 266 265 263 262 260 259 257 257 257 257 258 260 261 262 262 262 263 264 264 263 262 261 263 268 275
268 274 279 280 280 280 281 283 283 283 281 280 279 280 281 284 284 282 279 279 281 283 285 286 286 286 286 285 285 285 286 286 286 286 287 287 288 290 292 293 293 293 294 294 294 295 297 298 297 295 293 290 285 281 276 272 269 268 267 266 264 263 262 260 259 258 257 256 255 254 254 255 256 257 258 259 259 259 260 261 261 260 259 260 263 268
290 294 292 290 287 285 284 283 281 280 280 279 280 280 282 283 284 283 282 281 282 284 285 284 284 284 285 284 283 283 284 282 282 284 285 285 286 288 290 290 290 290 290 290 290 291 294 294 294 294 295 293 290 285 278 273 268 264 264 263 261 260 259 258 257 256 255 254 253 252 252 252 253 254 255 256 256 256 257 257 258 258 258 258 259 262
297 295 291 288 286 284 283 281 279 278 279 279 280 281 282 283 284 284 283 282 283 284 283 283 284 284 284 284 284 284 283 280 280 283 286 287 287 288 289 289 288 288 287 286 286 288 290 291 291 292 293 293 291 287 281 275 269 265 263 262 260 258 256 255 254 254 253 252 251 250 250 250 250 251 252 253 253 253 253 254 255 256 257 257 257 258
292 289 287 285 285 285 284 283 281 279 280 281 281 281 281 281 282 282 281 280 279 279 278 278 278 282 285 286 286 284 283 281 281 284 287 287 287 288 288 287 285 284 285 284 283 284 285 286 288 289 291 291 290 286 280 275 271 268 265 262 260 257 255 253 252 252 251 251 250 249 248 247 247 248 249 250 250 250 250 251 253 254 255 255 256 257
291 290 289 288 287 286 286 285 283 281 281 281 281 281 280 279 279 278 277 275 273 272 271 271 271 271 277 283 283 283 282 281 282 285 287 286 286 287 287 285 283 282 282 281 281 281 282 283 285 286 287 287 285 282 278 275 272 268 265 261 258 255 253 251 250 250 249 249 248 247 246 245 244 245 246 247 247 247 247 248 250 251 253 253 254 255
294 293 291 289 288 286 284 282 281 280 280 280 280 280 279 277 276 274 271 269 266 265 264 265 266 267 269 273 277 279 280 277 278 281 282 283 285 286 286 284 282 281 279 278 278 278 279 281 283 283 283 281 279 278 276 273 270 266 263 260 256 253 251 250 248 248 247 247 246 245 244 243 242 242 243 244 244 244 245 246 247 249 250 251 252 253
293 291 289 288 287 285 284 282 281 280 281 281 280 279 277 275 273 271 268 264 261 261 261 262 263 264 266 270 274 276 276 273 273 275 278 281 283 285 285 283 280 278 277 276 276 276 278 279 280 281 280 278 276 275 274 272 269 266 263 259 256 253 250 248 246 245 245 244 243 242 241 240 239 239 240 241 242 242 242 243 245 246 248 249 250 251
290 288 286 285 284 284 285 286 286 285 284 282 279 276 274 271 269 267 265 263 262 261 261 261 262 265 267 270 273 275 275 272 271 275 280 281 282 283 283 280 278 276 274 275 275 276 277 278 279 279 280 278 276 274 272 271 269 266 264 261 257 254 251 248 246 244 243 242 241 239 238 237 237 237 237 238 238 239 239 240 241 243 245 247 248 250
283 283 283 283 281 281 283 284 285 285 283 278 273 269 269 268 268 269 270 269 268 267 266 266 266 268 270 272 273 274 273 269 269 273 278 280 279 279 280 277 274 273 272 274 276 278 278 278 278 278 278 276 274 273 271 270 268 266 263 261 258 255 252 250 248 246 244 242 241 239 237 236 236 236 235 236 236 236 236 237 238 240 242 244 246 247
278 280 284 285 285 283 282 282 282 280 277 270 266 265 264 265 266 267 269 269 268 268 268 268 269 269 269 270 271 270 267 263 261 263 268 270 274 276 278 276 274 273 273 275 278 280 280 279 278 277 276 275 273 272 271 269 267 265 263 260 258 255 253 251 249 248 246 244 243 241 239 238 237 236 235 235 234 234 234 235 236 238 240 242 243 245
289 292 295 295 293 289 285 281 278 274 271 267 264 263 263 265 264 263 263 263 262 262 264 265 267 267 266 266 265 264 261 257 253 251 255 262 270 275 277 276 276 275 275 277 279 282 283 281 279 277 276 274 273 272 270 268 266 265 262 260 258 256 254 252 250 249 247 245 244 243 241 240 238 237 236 235 233 232 232 233 234 236 238 239 240 242
300 299 297 296 295 294 292 290 287 285 285 287 290 293 294 290 284 278 272 267 264 263 264 266 267 268 269 269 268 266 263 257 248 244 250 261 270 273 275 276 276 277 278 280 282 284 284 282 279 277 275 273 272 271 270 269 267 266 264 262 260 258 255 253 252 250 248 246 244 243 242 240 239 238 236 234 232 231 230 230 232 234 236 237 238 240
301 300 299 299 299 299 300 300 301 303 305 307 308 308 308 306 301 295 287 281 278 278 278 277 275 276 278 279 277 275 273 266 254 246 249 261 271 275 275 276 276 278 280 283 285 284 282 279 277 275 273 273 273 272 272 271 270 268 266 263 260 257 255 254 252 251 248 246 244 243 242 240 239 238 236 234 231 229 228 228 229 231 233 235 236 238
305 305 305 304 304 303 303 303 303 304 305 304 303 302 302 302 300 295 289 285 284 283 282 280 278 279 279 277 275 275 274 270 261 255 255 264 272 276 276 277 278 279 281 283 283 280 277 274 273 273 273 275 277 278 278 276 273 270 266 262 259 257 256 255 253 251 249 247 245 243 241 240 238 237 235 233 230 228 226 225 226 228 231 233 235 237
309 309 309 308 307 306 305 303 303 303 303 303 302 300 299 298 295 290 285 283 282 277 272 267 269 274 275 274 275 275 275 271 267 265 266 270 271 273 275 277 278 279 279 280 280 278 275 273 273 274 276 278 281 283 284 282 278 273 267 264 262 260 258 255 253 251 249 247 245 243 241 239 238 236 234 232 229 227 225 224 224 226 228 230 232 235
313 312 311 310 309 308 307 306 305 305 304 303 301 300 298 296 293 289 288 290 290 285 277 275 275 276 280 282 282 280 276 271 268 266 265 265 265 267 271 274 274 274 277 283 288 289 285 279 276 275 277 280 283 285 286 284 280 274 271 270 269 267 264 259 254 250 248 246 244 242 241 239 238 236 234 232 229 226 224 222 222 224 226 228 230 232
317 316 314 311 309 308 307 306 306 305 304 302 301 299 298 295 293 292 292 294 294 289 283 280 278 278 280 283 284 280 274 270 268 263 258 254 256 263 268 270 269 271 281 295 302 298 292 286 280 276 277 281 283 283 284 281 279 279 280 281 280 276 270 263 257 251 247 245 243 241 240 239 237 236 234 232 229 226 224 222 221 222 224 225 226 228
319 317 313 311 309 308 306 305 304 304 302 301 300 298 296 294 291 289 288 286 282 277 274 273 272 272 273 275 276 274 271 272 270 264 256 250 254 263 267 270 272 275 281 288 296 302 296 293 289 286 285 287 287 285 284 284 284 286 289 292 291 285 275 266 258 253 247 244 241 239 238 237 236 235 233 232 229 227 224 221 220 220 222 222 223 225
318 316 313 311 309 307 306 304 303 302 301 299 298 296 293 291 287 284 281 276 272 267 265 266 266 266 265 262 261 264 266 271 270 267 264 263 265 268 269 271 273 274 274 269 267 273 290 299 297 295 295 293 290 287 286 287 288 291 294 295 294 292 288 279 269 259 250 244 241 238 236 235 234 233 232 231 229 227 224 221 219 218 219 219 219 221
317 314 312 311 309 308 306 304 302 301 299 297 295 293 291 289 285 281 277 274 269 265 261 261 261 262 260 258 259 260 263 265 264 263 262 263 267 269 269 268 269 270 270 263 259 259 264 273 288 293 294 292 290 287 287 287 288 290 291 291 290 292 296 297 293 280 263 251 243 239 236 234 233 232 231 230 229 227 224 221 218 217 216 216 217 218
315 314 312 311 310 309 306 304 302 300 298 295 293 292 290 288 285 281 278 274 270 265 261 257 257 258 259 259 259 261 262 262 260 258 256 256 259 263 265 264 264 264 266 264 260 259 262 269 278 287 292 293 291 288 286 286 287 288 288 287 287 288 294 298 299 293 282 264 250 243 239 235 233 232 230 229 228 226 224 221 218 216 215 214 215 215
316 315 315 314 313 311 308 306 303 301 298 296 294 292 290 287 285 282 279 276 272 268 264 259 256 255 255 257 260 263 263 263 261 257 253 251 253 259 263 262 261 260 261 264 264 264 267 270 274 280 287 291 292 290 287 286 287 288 287 285 284 285 287 290 291 291 288 274 257 246 240 236 234 232 230 228 226 224 222 220 218 216 214 214 215 215
316 316 317 317 316 314 311 309 307 304 301 298 296 294 292 290 287 285 282 279 276 272 268 265 261 258 255 254 256 260 263 264 263 259 253 250 251 255 260 261 260 259 260 263 264 265 269 274 277 278 281 285 289 290 289 290 290 289 287 285 283 282 282 282 284 285 284 274 260 248 240 237 235 233 230 227 225 223 221 220 218 216 215 214 215 216
317 317 318 318 318 316 315 313 310 308 304 302 300 298 296 294 291 289 287 284 281 278 274 270 266 263 259 257 257 258 261 264 263 260 255 251 249 251 254 258 258 257 256 258 262 265 269 275 278 279 278 275 278 284 288 292 293 291 288 286 284 283 281 282 283 283 281 275 261 247 239 237 236 235 233 229 226 223 221 220 219 217 216 215 216 218
319 319 318 319 319 319 318 315 313 310 307 305 302 301 299 297 295 293 291 289 286 282 278 274 271 268 265 263 261 261 263 264 263 262 258 254 251 248 249 253 255 254 251 252 256 261 265 270 276 276 275 273 274 276 282 288 291 290 289 289 288 285 283 284 286 286 284 278 265 248 238 235 236 236 234 231 228 224 222 221 220 218 216 216 217 219
320 319 319 319 320 319 318 315 313 311 309 306 304 303 301 300 298 296 294 291 288 285 282 278 275 273 271 269 267 266 265 264 264 263 261 257 253 249 247 248 250 250 250 249 250 253 256 260 264 269 273 277 277 278 280 282 284 287 292 293 292 288 286 286 286 285 282 277 266 252 240 237 236 235 231 229 226 223 221 220 219 216 215 214 215 217
321 320 319 319 318 317 316 313 312 311 309 308 306 305 304 302 301 299 297 295 292 289 286 283 280 277 275 273 271 270 269 268 267 265 262 258 255 251 248 246 246 248 248 247 245 245 247 252 257 261 265 269 276 279 280 279 279 282 289 292 291 288 286 286 284 280 277 273 264 253 244 243 242 237 229 224 221 219 217 216 215 213 211 208 208 210
321 320 319 318 318 317 315 313 313 312 311 309 308 307 305 305 303 302 301 299 296 294 291 288 284 280 277 275 274 272 271 270 269 266 263 260 257 253 249 246 245 245 245 244 242 242 242 246 252 257 260 265 269 274 275 274 274 275 278 279 282 285 287 285 280 277 276 274 266 255 247 245 245 241 231 222 220 219 218 215 212 210 208 206 204 203
320 319 318 318 317 317 316 316 316 315 314 312 310 308 306 305 304 302 301 299 298 296 295 291 287 282 278 276 275 274 273 271 270 268 266 263 260 255 251 248 246 244 243 241 240 240 241 244 247 252 256 260 264 269 271 271 271 269 268 269 276 283 287 283 279 276 276 276 273 263 249 244 245 244 235 224 219 218 217 215 211 208 205 204 204 204
319 318 317 317 317 317 318 319 319 320 319 317 313 310 308 307 306 304 301 298 297 296 296 294 290 285 281 279 278 278 277 275 273 271 268 266 263 259 254 251 248 244 241 239 239 240 242 243 244 247 251 255 258 262 266 269 269 266 262 262 267 272 277 278 277 276 275 276 275 267 256 248 246 245 241 229 219 214 213 212 210 207 205 203 203 204
317 318 318 318 319 320 322 323 323 323 322 319 315 313 312 311 309 307 303 299 299 299 297 296 294 290 285 281 281 282 283 282 280 277 273 269 266 261 258 254 251 248 243 238 237 239 240 242 243 245 247 249 252 256 260 263 264 263 260 258 256 255 257 265 272 274 274 272 270 265 258 252 253 255 252 237 220 211 209 208 207 205 204 204 203 204
319 321 321 321 322 324 325 325 325 325 325 322 319 317 316 315 314 311 306 303 302 302 301 300 299 295 289 287 288 290 290 290 288 285 281 275 269 264 260 256 253 250 246 241 238 237 238 240 243 245 246 245 246 249 254 257 260 260 259 256 253 251 253 259 264 267 267 268 268 264 259 255 258 263 260 244 223 210 205 205 204 203 201 202 203 204
325 325 324 324 324 324 325 325 326 327 326 325 324 322 321 320 318 315 312 308 307 306 306 305 302 297 294 295 297 298 297 297 296 294 290 285 279 272 265 259 255 252 248 244 242 240 239 239 242 244 244 244 245 247 249 251 254 256 257 255 253 253 254 256 257 257 258 261 264 264 262 259 259 262 263 249 228 210 202 202 202 202 200 201 202 204
329 328 326 325 324 324 324 326 327 327 327 326 325 325 324 323 322 319 317 315 312 310 310 308 305 299 295 296 298 299 298 298 298 298 296 293 288 282 275 268 263 258 253 250 247 245 243 242 240 239 238 240 245 248 250 249 249 250 251 251 250 250 252 253 253 252 253 254 258 261 263 262 260 261 262 254 237 215 202 200 201 202 201 201 203 204
330 329 327 325 324 323 324 326 327 327 326 325 324 325 325 325 324 322 319 318 315 313 312 310 307 303 299 298 298 297 296 297 297 297 297 296 295 291 286 281 274 268 263 259 254 251 248 246 243 239 236 236 241 248 251 250 248 246 247 247 246 247 249 251 252 250 249 250 253 256 257 256 254 254 257 256 243 223 205 199 200 203 203 203 203 204
331 331 329 327 325 324 324 325 326 326 325 324 324 324 325 325 325 323 319 317 315 313 311 309 307 305 302 300 300 299 299 297 296 296 296 297 298 297 295 292 287 281 274 268 262 258 255 252 248 244 239 236 238 244 249 250 248 246 245 243 243 244 247 250 251 249 246 246 248 251 252 250 248 249 256 257 247 228 210 201 199 201 203 203 203 204
333 333 331 329 327 325 324 324 325 325 324 324 324 324 324 325 325 323 321 318 316 313 310 307 305 303 302 301 301 302 302 301 299 298 298 299 301 301 300 298 295 289 282 274 267 261 257 254 251 248 243 237 235 237 242 246 247 245 243 241 240 241 243 247 248 246 242 242 243 245 247 248 247 248 252 254 250 236 218 205 199 198 201 202 202 204
334 334 334 331 328 326 325 324 324 324 324 324 324 324 324 324 324 324 323 322 320 316 311 308 305 301 300 300 301 302 302 302 301 300 300 301 302 302 300 299 296 293 288 281 272 262 251 251 253 251 246 238 233 231 232 237 240 241 240 240 238 238 239 242 244 243 240 239 240 241 241 242 242 241 240 243 243 237 225 211 200 196 198 199 201 203
Height
739 736 735 733 733 730 727 725 725 723 721 719 717 716 715 714 713 711 710 709 708 706 704 702 700 698 697 695 693 692 690 688 686 684 683 682 680 678 678 677 677 677 676 675 674 673 671 670 669 668 667 667 667 666 665 664 663 661 659 659 660 660 661 662 663 663 664 664 664 665 665 666 667 668 668 669 669 670 671 671 671 670 669 668 668 669
737 734 733 731 730 728 725 722 722 721 719 717 715 714 713 712 710 708 707 706 705 704 703 701 699 697 695 693 692 690 689 687 685 683 681 680 679 677 676 675 675 675 674 673 673 671 670 669 668 667 666 666 665 664 663 662 661 659 658 658 659 659 660 661 662 663 663 663 663 664 664 665 666 666 667 668 668 669 669 669 668 668 667 667 668 668
734 732 729 728 727 725 722 719 718 718 717 715 713 712 710 709 708 706 705 704 703 702 700 699 698 695 693 691 690 688 687 686 684 682 680 678 677 676 674 673 672 672 672 672 671 670 669 668 668 667 666 665 664 663 663 662 660 658 657 658 658 659 660 661 662 662 662 662 663 663 664 664 665 666 666 667 667 668 668 668 667 666 666 667 668 668
732 729 726 725 723 722 719 717 716 715 714 713 711 709 708 707 705 704 703 702 700 699 698 697 696 694 692 689 688 687 685 684 682 681 679 677 676 674 672 671 670 669 669 669 669 668 667 667 666 666 665 664 663 663 662 661 659 658 657 657 658 659 659 660 661 662 662 662 662 663 663 664 665 665 666 666 666 667 667 667 666 666 666 667 668 668
728 727 724 723 720 718 716 714 713 712 711 710 708 707 706 705 703 702 700 699 698 697 696 695 693 692 690 688 686 684 683 682 681 679 678 676 674 673 671 669 668 667 667 667 667 666 665 664 664 663 663 662 662 661 660 659 658 657 657 657 658 658 659 660 660 661 661 661 662 663 663 664 664 665 665 666 666 666 666 666 666 666 666 667 668 669
724 723 722 721 718 715 713 712 711 710 709 707 706 705 703 702 701 700 698 698 697 695 694 693 691 690 688 686 685 683 682 680 679 678 676 674 673 671 669 668 666 665 664 664 664 664 663 662 662 661 660 659 658 658 657 656 656 656 656 656 657 658 658 659 659 660 660 661 661 662 662 663 663 664 665 665 665 665 666 666 666 666 666 667 668 668
721 721 720 718 716 713 711 709 708 708 707 705 703 702 701 700 699 698 697 696 695 693 692 690 688 687 686 684 683 682 680 679 677 676 674 673 671 670 668 667 665 663 663 662 662 662 661 661 660 659 658 656 655 654 654 654 654 655 655 656 656 657 658 658 659 659 660 660 661 661 662 662 663 663 664 664 664 665 665 665 666 666 666 667 668 668
718 717 717 715 713 710 708 707 706 706 705 704 702 700 699 698 697 696 695 694 693 692 690 688 686 685 683 682 681 680 678 677 675 674 672 671 669 668 667 665 664 663 661 660 660 660 659 659 658 657 656 654 653 653 653 653 653 654 654 655 656 656 657 657 658 658 659 659 660 660 661 661 662 663 663 663 664 664 664 665 665 665 666 666 667 667
717 714 713 712 710 708 706 704 703 703 703 702 700 699 697 696 695 694 693 692 691 690 689 687 685 683 681 680 680 678 677 676 674 673 671 669 668 666 665 664 663 662 660 659 659 658 658 658 657 656 655 654 653 653 652 652 652 653 653 654 655 655 655 656 656 657 658 658 659 659 660 661 661 662 662 663 663 663 664 664 664 665 665 665 666 666
714 712 710 708 707 707 705 702 700 700 701 700 698 697 696 695 693 692 690 689 688 688 687 685 683 681 679 678 678 677 676 674 673 672 670 668 667 665 664 663 662 660 659 658 658 657 656 656 655 655 654 654 653 653 652 652 652 652 653 653 653 654 654 655 655 656 656 657 658 659 660 660 660 661 661 662 662 663 663 663 663 664 664 664 665 665
712 710 708 706 704 703 703 700 698 698 698 697 696 695 694 694 693 691 688 686 685 685 684 683 682 680 678 677 676 675 674 673 671 669 668 667 666 664 663 662 660 659 658 658 657 656 655 654 654 653 653 653 653 652 652 652 651 651 652 652 653 653 653 654 654 655 656 656 657 658 659 659 660 660 660 660 661 662 662 663 663 663 663 664 664 664
709 707 705 704 702 701 699 698 697 696 696 695 694 693 692 691 690 689 687 685 683 682 682 681 679 678 677 676 674 673 673 671 669 668 666 665 664 663 661 660 659 658 657 656 655 654 654 653 653 652 652 652 651 651 651 651 651 651 651 651 652 652 653 653 654 654 655 656 657 657 658 658 659 659 659 659 660 661 661 662 662 663 663 663 664 664
707 705 703 702 700 699 698 697 695 694 694 693 692 690 688 688 688 687 686 683 682 681 680 678 677 676 675 675 674 673 671 670 668 667 665 664 663 662 661 659 658 657 656 655 654 653 653 652 651 651 650 650 650 650 650 650 650 650 650 651 651 651 652 653 653 653 654 655 656 656 657 657 658 658 658 658 659 659 660 661 662 662 663 663 664 664
704 703 701 700 698 697 696 695 693 692 691 690 689 688 687 686 686 685 684 682 681 679 679 677 675 673 673 673 672 672 670 669 667 665 664 663 662 661 660 659 658 656 656 654 653 652 651 651 650 649 649 649 648 648 648 648 648 648 649 649 650 650 651 652 652 653 653 654 654 655 656 656 657 657 657 657 658 658 659 660 661 662 662 663 663 664
702 701 699 698 696 694 693 692 691 689 688 687 687 686 685 684 684 683 683 681 679 678 677 676 673 672 671 671 670 670 669 668 666 664 663 662 661 660 660 659 657 656 655 654 653 651 651 650 649 648 648 647 647 647 647 647 647 647 648 648 648 649 650 650 651 651 652 652 653 653 654 655 655 656 656 656 657 657 658 658 659 660 661 662 663 663
701 700 698 695 693 691 690 689 688 687 685 685 685 684 684 683 682 682 681 679 678 677 676 674 672 670 668 668 668 668 668 667 665 663 662 660 659 659 659 658 657 655 654 653 652 650 649 649 648 648 647 646 645 645 646 646 646 646 646 647 647 648 648 649 649 650 650 651 651 652 653 653 654 654 655 655 655 656 656 657 658 659 660 661 661 662
699 698 696 693 691 689 688 687 686 685 684 683 683 683 682 681 681 680 679 678 676 675 674 673 671 669 666 666 666 667 667 666 664 663 661 659 658 658 658 658 656 654 653 652 651 649 648 648 647 646 646 645 644 644 644 644 645 645 645 645 646 646 647 647 648 648 649 649 650 650 651 652 653 653 653 654 654 654 655 656 657 657 658 659 660 661
697 695 693 691 689 687 686 685 684 683 683 682 681 680 680 679 679 678 677 676 675 673 672 671 670 668 666 664 664 665 665 665 663 662 660 658 656 656 657 657 655 653 652 650 649 648 648 647 646 645 644 644 643 643 643 643 644 644 644 644 645 645 645 646 646 647 647 647 648 648 649 650 651 652 652 653 653 653 654 654 655 656 657 658 658 659
695 693 692 690 688 685 684 683 682 681 681 680 679 678 678 677 676 675 674 673 672 671 670 669 667 666 664 663 663 663 664 663 663 661 659 657 655 654 655 655 654 652 650 648 648 647 646 645 645 644 644 643 643 643 643 643 643 643 643 643 643 644 644 644 644 645 645 646 646 647 648 648 649 650 650 651 651 652 653 653 654 654 655 656 657 658
693 692 691 689 686 683 682 680 680 680 679 678 678 677 675 674 673 672 671 670 669 668 668 667 665 663 662 661 661 661 662 662 661 660 658 655 653 653 653 653 652 650 648 647 646 645 645 644 643 643 643 642 642 642 641 641 641 641 642 642 642 642 642 643 643 643 643 644 644 645 646 646 647 648 649 649 650 651 651 652 653 653 654 654 655 656
692 689 688 687 685 683 680 679 678 678 678 677 676 675 673 671 670 669 668 668 667 666 665 664 662 661 661 660 659 660 660 661 660 658 656 654 652 651 651 651 650 648 647 645 644 644 644 643 642 641 641 640 640 640 640 639 639 640 640 640 640 640 640 640 641 641 641 642 642 643 644 644 645 646 647 648 648 649 650 650 651 652 652 653 654 655
690 687 685 684 683 682 679 678 677 677 676 676 674 672 670 668 667 666 666 665 665 664 663 662 660 660 659 658 658 658 659 659 659 658 656 653 650 648 649 649 648 647 645 643 643 643 643 642 641 640 639 639 638 638 637 637 637 637 637 638 638 638 638 638 638 639 639 639 640 641 641 642 643 644 645 646 646 647 648 648 649 650 651 651 652 653
688 685 683 682 681 679 678 676 675 674 673 672 670 668 666 666 665 664 664 663 663 662 661 660 659 658 658 657 657 656 657 657 657 656 655 651 648 646 647 648 647 645 643 642 641 641 641 640 639 638 637 637 636 636 635 635 635 635 636 636 636 636 636 636 636 637 637 637 637 638 639 640 640 641 642 643 644 645 646 647 648 648 649 650 650 651
687 684 683 681 679 677 675 673 671 670 668 667 665 664 664 664 663 663 662 661 661 660 659 658 657 656 655 655 654 654 653 654 654 654 653 650 647 645 645 646 645 643 641 640 640 640 639 638 637 636 635 634 634 633 633 633 633 633 633 633 633 633 634 634 634 634 635 635 635 636 636 637 638 639 640 641 642 643 643 644 645 646 647 648 649 650
686 684 681 679 677 675 673 671 669 667 666 665 664 663 663 663 662 661 660 659 658 658 657 656 655 653 653 652 652 652 651 652 652 652 650 648 645 644 644 644 644 642 640 639 639 639 638 636 635 634 633 632 632 631 631 631 631 631 631 631 631 631 631 631 632 632 632 632 633 633 634 635 636 637 637 638 639 640 641 643 643 644 645 646 647 648
684 682 680 677 675 673 671 669 668 667 666 664 663 662 662 661 660 659 658 658 657 657 656 655 653 652 651 651 650 650 650 650 650 649 649 647 644 643 642 643 643 641 639 637 637 637 636 634 633 632 631 630 630 629 629 629 628 628 628 628 628 628 629 629 629 629 629 630 630 631 631 632 633 634 635 636 637 638 639 640 642 643 644 645 646 647
683 680 678 676 673 672 670 668 667 665 664 663 663 662 661 660 659 658 657 657 656 656 655 654 652 651 650 649 649 648 648 648 648 648 647 646 644 642 641 641 641 640 638 637 636 635 634 632 631 630 629 628 628 627 626 626 626 626 626 626 626 627 627 627 627 627 627 627 627 628 629 629 630 631 632 633 635 636 637 638 640 641 642 643 644 645
680 678 676 674 672 670 668 667 666 664 663 662 662 661 660 659 658 656 655 655 655 655 654 652 651 650 648 648 647 647 647 647 647 646 646 646 644 641 639 640 640 639 637 635 633 632 632 630 629 628 627 626 625 624 624 623 623 624 624 624 624 624 624 624 624 624 624 625 625 626 626 627 628 629 630 631 632 633 635 636 637 639 641 642 643 644
678 676 674 672 670 669 667 666 664 663 662 661 660 660 659 658 657 655 654 654 654 653 652 651 650 649 648 647 646 646 645 645 645 645 645 645 643 640 639 639 639 638 637 634 632 630 629 627 627 626 625 624 623 622 622 622 622 622 622 622 621 621 621 621 621 621 622 622 622 623 624 624 625 626 627 628 630 631 632 634 636 637 639 640 641 642
675 673 671 670 668 667 665 664 663 662 661 660 659 658 658 657 656 654 653 653 653 653 651 650 649 648 648 647 646 644 643 643 643 644 644 643 641 639 638 638 637 636 636 634 632 629 626 625 624 624 623 622 622 622 621 621 621 620 620 619 619 618 618 618 618 619 619 619 620 620 621 622 623 624 625 626 627 629 630 632 634 636 637 638 639 640
673 671 669 668 666 665 663 662 661 660 659 658 658 657 656 655 654 653 653 652 652 651 650 649 648 648 648 647 645 643 641 641 642 642 642 641 639 637 637 637 636 635 635 635 633 630 626 622 622 622 622 622 621 621 620 620 619 618 618 617 617 616 616 616 617 617 617 617 617 618 618 619 620 622 622 624 625 626 628 629 632 633 635 636 637 638
672 670 668 666 665 663 662 661 659 658 657 656 655 655 654 653 653 652 651 650 650 649 648 648 647 646 646 645 644 642 640 640 640 641 641 640 638 637 636 636 635 634 634 634 634 632 628 623 620 620 620 620 620 619 618 617 617 617 616 615 615 614 614 614 615 615 615 615 615 616 616 617 618 619 620 622 623 624 625 627 629 631 632 633 634 635
671 669 667 665 664 662 661 659 658 657 656 655 653 653 652 651 651 650 649 648 648 647 647 646 645 644 644 643 642 640 639 639 639 640 640 639 637 636 635 634 634 633 633 632 632 631 628 625 621 620 619 618 617 617 616 616 615 615 614 614 613 613 612 613 613 613 613 613 613 613 614 615 616 617 618 619 620 622 623 625 626 628 629 631 632 633
670 668 666 664 663 661 659 658 657 655 654 653 652 651 650 649 648 648 647 647 646 645 644 644 643 643 642 641 639 638 637 637 637 638 638 637 636 634 633 633 632 632 631 630 630 628 627 624 622 620 618 616 615 615 615 614 614 613 613 613 612 612 611 612 612 612 611 611 612 612 612 613 614 615 616 617 618 619 621 622 624 625 627 628 629 631
669 667 665 663 662 660 658 657 655 654 653 652 651 650 649 648 647 646 645 644 644 643 642 642 641 640 640 638 637 635 634 634 635 636 636 635 634 633 632 631 631 630 630 629 628 627 625 622 621 620 618 615 613 613 613 612 612 612 612 612 611 611 611 611 611 611 610 610 610 611 611 611 612 613 613 615 616 617 618 620 621 623 624 626 627 628
668 666 664 663 661 659 657 656 654 653 652 651 649 648 647 646 645 644 643 643 642 641 640 639 638 638 637 637 635 633 632 632 632 633 634 633 633 632 631 629 629 629 628 627 626 625 623 621 620 619 618 616 613 611 611 611 611 611 611 610 610 610 610 609 609 609 609 609 609 609 609 610 610 611 611 612 613 615 616 617 619 620 622 624 625 626
668 666 663 662 660 658 657 655 653 652 651 649 648 647 646 645 643 642 641 640 639 638 638 637 636 635 635 634 633 632 630 630 630 631 631 631 631 630 629 627 627 627 627 626 625 623 622 620 618 617 616 615 613 611 610 610 610 609 609 609 608 608 608 607 608 608 607 607 607 607 607 608 609 609 609 610 612 613 614 616 617 618 620 622 623 624
667 665 663 661 659 658 656 654 653 651 649 648 647 645 644 643 642 641 639 638 637 637 635 635 634 633 632 631 630 629 628 627 627 627 628 628 628 627 627 626 625 625 625 624 623 622 622 620 618 616 614 612 611 611 610 610 609 608 607 607 607 606 606 606 606 606 605 605 605 605 605 606 607 607 608 609 610 611 612 613 615 616 618 620 621 623
667 665 663 660 659 657 655 653 652 650 648 647 645 644 643 641 640 639 638 637 635 634 633 632 631 630 629 628 627 627 626 625 625 624 624 624 624 624 624 623 623 622 622 622 622 621 620 619 617 615 613 611 610 609 609 609 609 608 607 606 605 604 604 604 604 604 604 604 604 604 604 604 605 606 606 607 608 609 609 610 612 613 615 618 620 621
666 664 662 660 658 657 655 653 651 649 647 646 644 643 641 640 638 637 636 635 634 632 631 630 629 628 627 626 625 624 623 622 622 622 622 621 621 621 621 621 620 620 620 620 620 619 618 617 616 614 612 611 609 608 608 608 607 607 607 606 604 602 602 602 603 603 603 603 602 602 602 602 603 604 604 604 605 606 607 607 609 611 612 615 617 619
666 663 661 659 657 656 654 652 650 648 647 645 643 642 640 639 637 636 634 633 632 631 630 628 627 626 625 623 622 622 621 620 619 619 618 618 618 618 617 617 617 617 617 617 617 617 616 615 614 612 611 610 609 607 607 606 606 607 607 605 603 602 601 601 601 601 601 601 601 601 601 601 601 602 602 602 603 603 604 606 607 609 610 612 613 615
666 663 661 659 657 655 653 651 649 648 646 644 642 641 639 637 636 635 633 632 630 629 628 627 625 624 622 621 620 619 618 617 616 616 615 615 615 615 615 614 614 615 615 615 614 614 613 613 612 611 609 609 608 607 605 604 604 605 605 604 603 602 600 598 598 599 599 599 599 599 600 599 600 600 600 601 601 602 603 604 605 607 608 609 611 612
665 663 661 658 656 654 652 650 648 647 645 643 641 640 638 637 635 634 632 631 629 628 627 625 624 622 621 619 617 616 616 615 614 613 612 612 612 612 612 612 612 612 612 612 612 611 610 610 610 608 607 607 607 606 603 602 602 603 603 603 603 602 600 597 597 597 598 598 598 598 598 598 598 598 599 599 599 600 601 602 603 604 605 606 607 609
665 663 660 658 656 653 651 649 648 646 644 642 640 638 637 636 634 633 631 630 628 627 625 624 622 621 619 617 615 614 613 612 612 611 610 610 609 609 609 608 608 609 609 609 609 608 608 607 607 606 605 606 605 604 602 600 600 600 601 601 601 601 599 597 596 597 597 597 597 597 597 597 597 597 597 597 598 598 599 600 601 602 603 604 605 607
664 662 660 658 655 653 651 649 647 645 643 642 640 638 636 634 633 632 630 629 627 626 624 623 621 619 617 615 614 612 611 610 609 609 608 608 607 607 607 606 606 606 606 606 606 605 605 605 604 603 603 603 603 602 600 598 598 598 598 598 598 598 597 596 596 596 595 595 595 595 595 595 596 596 596 595 595 596 596 597 598 600 601 602 604 605
663 662 659 657 655 653 651 649 647 645 643 641 639 637 635 634 632 631 629 628 626 625 623 622 620 618 616 614 612 611 610 608 607 607 606 606 605 605 605 604 604 603 603 602 602 602 602 602 601 601 602 601 600 598 597 596 596 596 596 596 596 596 595 594 594 593 593 593 593 593 593 594 595 595 594 593 592 593 593 595 596 597 599 600 601 602
663 661 659 657 655 653 651 649 647 644 642 640 638 637 635 633 632 630 628 627 626 624 622 621 619 617 615 613 612 610 609 607 606 605 604 604 603 603 603 602 602 602 601 600 600 599 599 598 598 599 599 598 597 595 593 593 594 593 593 593 594 594 593 592 591 591 592 592 592 592 592 593 593 593 592 591 591 591 592 593 594 595 596 597 598 600
663 661 659 657 655 653 651 648 647 644 642 640 637 636 634 633 631 630 628 626 625 623 622 620 618 616 614 612 611 610 608 607 605 604 603 602 602 601 601 600 600 599 599 598 597 597 596 596 595 595 595 595 594 592 590 590 591 591 591 592 592 592 591 589 589 590 591 591 590 590 591 592 592 592 591 590 589 589 589 590 592 593 594 595 596 598
662 660 659 657 655 653 651 648 647 644 642 640 637 635 633 632 631 629 628 626 624 623 622 620 618 616 614 612 610 608 607 606 604 603 602 601 600 600 599 598 598 597 596 596 595 594 593 592 592 591 591 591 590 589 587 587 588 588 589 589 589 589 588 587 587 588 588 588 588 589 589 590 590 590 590 589 588 587 587 587 589 590 591 592 594 595
661 660 658 657 655 653 651 648 646 644 642 640 637 635 633 631 630 628 627 626 624 622 621 620 618 616 613 611 609 607 606 604 603 602 600 599 599 598 597 597 596 595 594 593 592 592 591 589 588 587 586 586 586 586 586 585 585 586 587 587 586 586 586 585 585 586 586 587 587 587 588 588 589 589 590 588 586 585 585 585 586 587 589 590 592 593
661 659 658 656 654 653 650 648 647 644 642 640 638 635 633 631 629 627 626 625 623 622 620 619 617 616 613 611 609 607 606 604 602 601 599 598 597 597 596 595 594 594 593 592 590 589 588 586 584 582 581 581 581 582 582 582 582 583 584 583 583 583 584 583 583 583 584 585 585 586 587 587 587 587 587 586 584 583 583 583 583 584 586 587 589 591